Home > Weather > Buenaventura > Past weeks

Flag for Colombia Weather for the Past 2 Weeks in Buenaventura, Colombia

Now
79 °F

Clear.


Feels Like: 81 °F
Forecast: 79 / 90 °F
Wind: 14 mph from North

Location: Cali / Alfonso Bonillaaragon

Current Time: Feb 13, 2016 at 9:38:29 PM

Latest Report: Feb 13, 2016 at 8:00 PM


Visibility: N/A

Pressure: 29.87 "Hg

Humidity: 65%

Dew point: 66 °F

Location of BuenaventuraLocation

Historic Weather in Buenaventura — Graph

°F

Buenaventura Temperature Yesterday

Maximum temperature yesterday: 91 °F (at 2:00 PM)
Minimum temperature yesterday: 70 °F (at 5:00 AM)
Average temperature yesterday: 79 °F

High & Low Weather Summary for the Past Weeks

 TemperatureHumidityPressure
High93 °F (Feb 6, 3:00 PM)100% (Jan 30, 4:00 AM)30.07 "Hg (Jan 30, 4:00 AM)
Low64 °F (Feb 6, 3:00 AM)36% (Feb 6, 4:00 PM)29.77 "Hg (Feb 7, 4:00 PM)
Average77 °F71%29.94 "Hg
* Reported Jan 29 8:00 PM — Feb 13 8:00 PM, Buenaventura, Weather by CustomWeather, © 2016

Note: Actual official high and low records may vary slightly from our data, if they occured in-between our weather recording intervals... More about our weather records

Advertising

Buenaventura Weather History for the Previous 24 Hours

 ConditionsComfort  
Time TempWeatherWind HumidityBarometerVisibility
8:00 PM
Sat, Feb 13
79 °FClear.14 mph65%29.87 "HgN/A
7:00 PM79 °FClear.16 mph65%29.83 "HgN/A
6:00 PM84 °FScattered clouds.12 mph58%29.80 "HgN/A
5:00 PM90 °FScattered clouds.16 mph46%29.79 "HgN/A
4:00 PM91 °FScattered clouds.15 mph44%29.79 "HgN/A
3:00 PM93 °FScattered clouds.7 mph41%29.81 "HgN/A
2:00 PM90 °FScattered clouds.8 mph46%29.84 "HgN/A
1:00 PM91 °FScattered clouds.5 mph46%29.88 "HgN/A
12:00 PM90 °FScattered clouds.3 mph49%29.93 "HgN/A
11:00 AM86 °FScattered clouds.3 mph52%29.97 "HgN/A
10:00 AM82 °FPassing clouds.5 mph62%29.99 "Hg6 mi
9:00 AM79 °FScattered clouds.2 mph70%30.00 "Hg5 mi
8:00 AM77 °FScattered clouds.2 mph74%29.99 "Hg5 mi
7:00 AM68 °FPartly sunny.5 mph94%29.97 "Hg5 mi
6:00 AM68 °FPassing clouds.3 mph94%29.94 "HgN/A
5:00 AM68 °FPassing clouds.3 mph94%29.93 "HgN/A
4:00 AM68 °FPassing clouds.3 mph94%29.92 "HgN/A
3:00 AM68 °FPassing clouds.5 mph94%29.91 "HgN/A
2:00 AM70 °FPassing clouds.3 mph88%29.92 "HgN/A
1:00 AM72 °FPassing clouds.3 mph83%29.94 "HgN/A
12:00 AM70 °FPassing clouds.3 mph88%29.96 "HgN/A
11:00 PM
Fri, Feb 12
72 °FPassing clouds.2 mph83%29.96 "HgN/A
10:00 PM73 °FPassing clouds.5 mph78%29.96 "HgN/A
9:00 PM75 °FPassing clouds.2 mph74%29.95 "HgN/A
Weather by CustomWeather, © 2016

See weather overviewHow to use our weather pages